Weather in Agatti Island

India     10°51′32″N   72°11′38″E
temp.,
°C
wind,
m/s
gust,
m/s
humid.,
%
clouds,
%
prec.,
mm/h
press.,
hPa
HPBL,
m
4 december, sat
sat423:30+28wnw11740 0.0 1012487
02:30+27w117631 0.4 1010348
05:30+27w117642 1.5 1011243
08:30+27wnw117594 0.2 1013369
11:30+27nw227556 0.3 1013363
14:30+28nw227394 0.1 1010665
17:30+28nw22735 0.1 1010745
20:30+28nnw33764 0.1 1013666
5 december, sun
sun523:30+27n44780 0.3 1012559
02:30+27n44804 1.0 1011532
05:30+27nne44787 1.7 1011625
08:30+27nne44789 0.6 1013634
11:30+27nne45783 2.5 1013610
14:30+27n55774 2.8 1010619
17:30+27n667810 5.4 1011742
20:30+27n667625 0.6 1013798
6 december, mon
mon623:30+27n557521 0.6 1012784
02:30+27n667678 0.0 1010902
05:30+27n667497 0.1 1011903
08:30+27n557219 0.0 1013909
11:30+27n557323 0.0 1013855
14:30+27n667311 0.0 1010850
17:30+27nnw66705 0.0 1010857
20:30+27nnw66670 0.0 1013851
7 december, tue
tue723:30+27nnw55690 0.0 1012846
02:30+27nnw55711 0.0 1011849
05:30+27nnw55714 0.0 1011848
08:30+27n54701 0.0 1013845
11:30+27n55705 0.0 1013804
14:30+27nnw55705 0.0 1011820
17:30+27nnw66715 0.0 1011848
20:30+27nnw55715 0.0 1013846
8 december, wed
wed823:30+27n44715 0.0 1012796
02:30+27n55714 0.0 1010834
05:30+27nnw447233 0.0 1011846
08:30+27nnw447364 0.0 1013839
11:30+27nnw447394 0.0 1013921
14:30+27nnw5573100 0.0 1010807
17:30+27n4474100 0.0 1010671
20:30+27nnw557691 0.0 1012524